Regional Weather Roundup
Issued by NWS

Home | Current Version | Previous Version | Text Only | Print | Product List | Glossary Off
Versions: 1 2 3 4 5 6 7 8 9 10 11 12 13 14 15 16 17 18 19 20 21 22 23 24 25 26 27 28 29 30 31 32 33 34 35 36 37 38 39 40 41 42 43 44 45 46 47 48 49 50

000
ASUS43 KLOT 011706
RWRIL

ILLINOIS REGIONAL WEATHER ROUNDUP
NATIONAL WEATHER SERVICE CHICAGO/ROMEOVILLE IL
1100 AM CST SUN MAR 01 2015

NOTE: "FAIR" INDICATES FEW OR NO CLOUDS BELOW 12,000 FEET WITH NO
SIGNIFICANT WEATHER AND/OR OBSTRUCTIONS TO VISIBILITY.

* THESE STATIONS ARE NOT UNDER NWS QUALITY CONTROL. THEY ALSO MAY NOT
  REPORT WEATHER SUCH AS PRECIPITATION OR FOG.

ILZ001-002-007-009-015-016-024-011800-
NORTHWEST ILLINOIS

CITY           SKY/WX    TMP DP  RH WIND       PRES   REMARKS
MOLINE         CLOUDY    24  15  68 NW7       30.38S WCI  16
STERLING*      MOSUNNY   21  16  79 W5        30.39R WCI  15
SAVANNA*       CLOUDY    22  15  76 CALM      30.39R HAZE
$$

ILZ003-004-008-010-011-017-018-011800-
NORTH CENTRAL ILLINOIS

CITY           SKY/WX    TMP DP  RH WIND       PRES   REMARKS
ROCKFORD       CLOUDY    19  14  81 S6        30.37S HAZE    WCI  11
FREEPORT*      MOSUNNY   17  15  91 SW5       30.37F FOG     WCI  10
ROCHELLE*      MOSUNNY   19  17  95 W6        30.38R FOG     WCI  10
DE KALB*       LGT SNOW  18  16  90 S5        30.35F WCI  11
PERU*          LGT SNOW  22  19  87 CALM      30.37F
$$

ILZ005-006-012>014-019>023-011800-
NORTHEAST ILLINOIS

CITY           SKY/WX    TMP DP  RH WIND       PRES   REMARKS
CHICAGO-OHARE  CLOUDY    20  16  84 W5        30.35S FOG     WCI  13
CHICAGO-MIDWAY LGT SNOW  23  17  78 W5        30.36F WCI  17
AURORA         PTSUNNY   20  16  84 W3        30.36F FOG
LANSING*       LGT SNOW  22  19  89 CALM      30.37S
JOLIET*        RAIN      22  18  84 W5        30.38S WCI  15
WAUKEGAN       PTSUNNY   19  16  86 SW7       30.34S WCI  10
DUPAGE AIRPORT CLOUDY    20  16  84 W5        30.35S WCI  13
KANKAKEE*      LGT SNOW  24  20  87 CALM      30.38S VSB 1
WHEELING       CLOUDY    21  15  78 W5        30.37F WCI  15
MORRIS*        LGT SNOW  21  19  94 W3        30.37S
ROMEOVILLE*    RAIN      22  19  86 W3        30.36F
NORTHERLY ISL    N/A     23  18  81 W2          N/A
$$

LMZ740>746-011800-
SOUTHERN LAKE MICHIGAN

STATION/POSITION SKY/WX   TEMP    WIND        PRES    VSBY  WAVE
                          AIR SEA DIR/SP/G                  HT/PER
                          (F)     (DEG/KT/KT) (MB)    (MI)  (FT/S)
WAUKEGAN HARBOR            21     210/  9/ 13   N/A
HARRISON CRIB              22     220/  3/  5   N/A
BURNHAM HARBOR             23     220/  2/  5   N/A
CALUMET HARBOR             22     200/  3/  5 1026.9S
MICHIGAN CITY              20     170/  4/  5   N/A
$$

ILZ025>027-034>036-040-047-049-050-058-095>099-011800-
WEST-CENTRAL ILLINOIS

CITY           SKY/WX    TMP DP  RH WIND       PRES   REMARKS
QUINCY         CLOUDY    24  19  81 NW9       30.39R WCI  14
GALESBURG*     LGT SNOW  23  18  83 W6        30.38S WCI  15
MACOMB*        PTSUNNY   23  20  88 NW6       30.41S WCI  16
JACKSONVILLE*  LGT SNOW  27  23  85 W3        30.38S
PITTSFIELD*    CLOUDY    26  22  86 NW5       30.39R FOG     WCI  20
$$

ILZ028>032-037-038-041>044-048-051>054-059>061-011800-
CENTRAL ILLINOIS

CITY           SKY/WX    TMP DP  RH WIND       PRES   REMARKS
PONTIAC        LGT SNOW  23  21  91 CALM      30.38S
BLOOMINGTON    LGT SNOW  25  21  84 N5        30.36F FOG     WCI  19
DECATUR        LGT SNOW  25  23  92 CALM      30.36F VSB 3/4
PEORIA         CLOUDY    25  18  74 NW6       30.38S WCI  18
LACON*         LGT SNOW  22  18  83 CALM      30.38S
LINCOLN*       LGT SNOW  27  23  85 CALM      30.39S
SPRINGFIELD    LGT SNOW  26  24  92 CALM      30.38S VSB 3/4
TAYLORVILLE    LGT SNOW  27  23  86 N3        30.36F
$$

ILZ033-039-045-046-055>057-062-063-011800-
EAST-CENTRAL ILLINOIS

CITY           SKY/WX    TMP DP  RH WIND       PRES   REMARKS
CHAMPAIGN      LGT SNOW  24  22  91 CALM      30.35F FOG
DANVILLE*      LGT SNOW  24  22  91 CALM      30.33F
RANTOUL*       LGT SNOW  26  23  89 CALM      30.36F VSB 3/4
MATTOON        LGT SNOW  29  25  85 N7        30.35F FOG     WCI  22
PARIS*         LGT SNOW  28  26  93 CALM      30.36F
$$

ILZ079-100>102-011800-
SOUTHWEST ILLINOIS

CITY           SKY/WX    TMP DP  RH WIND       PRES   REMARKS
ALTON          CLOUDY    28  27  93 W6        30.38F FOG     WCI  22
BELLEVILLE     CLOUDY    30  30  99 W5        30.37F FOG     WCI  25
CAHOKIA*       CLOUDY    30  28  92 SW5       30.39F FOG     WCI  25
SPARTA*        CLOUDY    30  28  94 W5        30.40R WCI  25
$$

ILZ064>066-069>071-074>076-080>082-084>086-088>090-092>094-011800-
SOUTH-CENTRAL ILLINOIS

CITY           SKY/WX    TMP DP  RH WIND       PRES   REMARKS
CARBONDALE     CLOUDY    32  30  92 NW7       30.38S FOG     WCI  26
CAIRO*         CLOUDY    38  32  78 W5        30.38R WCI  35
EFFINGHAM*     LGT SNOW  31  28  88 W7        30.37F WCI  24
MARION         CLOUDY    34  32  93 NW7       30.38F FOG     WCI  28
MT. VERNON     CLOUDY    32  27  80 CALM      30.38F
CENTRALIA*     CLOUDY    30  28  90 CALM      30.37F FOG
SALEM*         CLOUDY    32  29  90 CALM      30.38S FOG
METROPOLIS*    CLOUDY    38  33  83 NW3       30.35S
$$

ILZ067-068-072-073-078-083-087-091-011800-
SOUTHEAST ILLINOIS

CITY           SKY/WX    TMP DP  RH WIND       PRES   REMARKS
LAWRENCEVILLE  CLOUDY    33  30  88 CALM      30.38R FOG
FLORA*         CLOUDY    30  30  98 CALM      30.38F FOG
FAIRFIELD*     CLOUDY    32  30  94 CALM      30.37S FOG
HARRISBURG*    CLOUDY    34  32  94 NW5       30.38F FOG     WCI  30
ROBINSON*      CLOUDY    30  30  98 CALM      30.38S FOG
CARMI*         CLOUDY    34  33  97 NW3       30.37R FOG
$$

ABBREVIATIONS USED IN REMARKS
   TC - TEMPERATURE IN CELSIUS
  WCI - WIND CHILL INDEX
   HX - HEAT INDEX
  VSB - VISIBILITY
$$



USA.gov is the U.S. government's official web portal to all federal, state and local government web resources and services.